1591653609,2020-06-09 00:00,437.00,-29
1591653669,2020-06-09 00:01,438.00,-28
1591653729,2020-06-09 00:02,437.00,-30
1591653790,2020-06-09 00:03,438.00,-31
1591653850,2020-06-09 00:04,436.00,-31
1591653910,2020-06-09 00:05,437.00,-28
1591653970,2020-06-09 00:06,436.00,-27
1591654030,2020-06-09 00:07,434.00,-29
1591654090,2020-06-09 00:08,436.00,-27
1591654150,2020-06-09 00:09,433.00,-27
1591654210,2020-06-09 00:10,436.00,-28
1591654270,2020-06-09 00:11,436.00,-28
1591654330,2020-06-09 00:12,438.00,-28
1591654390,2020-06-09 00:13,433.00,-31
1591654450,2020-06-09 00:14,436.00,-29
1591654510,2020-06-09 00:15,435.00,-28
1591654570,2020-06-09 00:16,435.00,-28
1591654631,2020-06-09 00:17,435.00,-30
1591654691,2020-06-09 00:18,436.00,-30
1591654751,2020-06-09 00:19,435.00,-28
1591654811,2020-06-09 00:20,435.00,-29
1591654871,2020-06-09 00:21,436.00,-28
1591654931,2020-06-09 00:22,434.00,-27
1591654991,2020-06-09 00:23,435.00,-28
1591655051,2020-06-09 00:24,437.00,-27
1591655111,2020-06-09 00:25,434.00,-28
1591655171,2020-06-09 00:26,434.00,-30
1591655231,2020-06-09 00:27,433.00,-28
1591655291,2020-06-09 00:28,433.00,-27
1591655352,2020-06-09 00:29,433.00,-28
1591655412,2020-06-09 00:30,435.00,-27
1591655472,2020-06-09 00:31,435.00,-29
1591655532,2020-06-09 00:32,435.00,-28
1591655592,2020-06-09 00:33,437.00,-28
1591655652,2020-06-09 00:34,432.00,-29
1591655712,2020-06-09 00:35,435.00,-27
1591655772,2020-06-09 00:36,436.00,-27
1591655832,2020-06-09 00:37,438.00,-28
1591655892,2020-06-09 00:38,437.00,-29
1591655952,2020-06-09 00:39,436.00,-28
1591656012,2020-06-09 00:40,438.00,-28
1591656072,2020-06-09 00:41,439.00,-29
1591656132,2020-06-09 00:42,438.00,-30
1591656192,2020-06-09 00:43,434.00,-28
1591656252,2020-06-09 00:44,436.00,-30
1591656312,2020-06-09 00:45,438.00,-28
1591656372,2020-06-09 00:46,434.00,-29
1591656432,2020-06-09 00:47,435.00,-27
1591656493,2020-06-09 00:48,437.00,-28
1591656553,2020-06-09 00:49,437.00,-28
1591656613,2020-06-09 00:50,435.00,-28
1591656673,2020-06-09 00:51,436.00,-28
1591656733,2020-06-09 00:52,436.00,-29
1591656793,2020-06-09 00:53,436.00,-29
1591656853,2020-06-09 00:54,434.00,-28
1591656913,2020-06-09 00:55,435.00,-30
1591656973,2020-06-09 00:56,437.00,-27
1591657033,2020-06-09 00:57,434.00,-27
1591657093,2020-06-09 00:58,437.00,-27
1591657153,2020-06-09 00:59,439.00,-28
1591657213,2020-06-09 01:00,436.00,-29
1591657273,2020-06-09 01:01,435.00,-27
1591657333,2020-06-09 01:02,436.00,-29
1591657394,2020-06-09 01:03,438.00,-28
1591657454,2020-06-09 01:04,437.00,-29
1591657514,2020-06-09 01:05,438.00,-28
1591657574,2020-06-09 01:06,435.00,-28
1591657634,2020-06-09 01:07,436.00,-28
1591657694,2020-06-09 01:08,439.00,-27
1591657754,2020-06-09 01:09,436.00,-28
1591657814,2020-06-09 01:10,438.00,-29
1591657874,2020-06-09 01:11,437.00,-28
1591657934,2020-06-09 01:12,439.00,-28
1591657994,2020-06-09 01:13,437.00,-30
1591658054,2020-06-09 01:14,435.00,-29
1591658114,2020-06-09 01:15,436.00,-30
1591658174,2020-06-09 01:16,436.00,-27
1591658234,2020-06-09 01:17,437.00,-29
1591658294,2020-06-09 01:18,437.00,-28
1591658354,2020-06-09 01:19,437.00,-29
1591658414,2020-06-09 01:20,438.00,-28
1591658474,2020-06-09 01:21,438.00,-29
1591658534,2020-06-09 01:22,442.00,-28
1591658594,2020-06-09 01:23,439.00,-29
1591658654,2020-06-09 01:24,442.00,-28
1591658715,2020-06-09 01:25,439.00,-29
1591658775,2020-06-09 01:26,440.00,-28
1591658835,2020-06-09 01:27,441.00,-27
1591658895,2020-06-09 01:28,440.00,-27
1591658955,2020-06-09 01:29,443.00,-28
1591659015,2020-06-09 01:30,440.00,-28
1591659075,2020-06-09 01:31,442.00,-27
1591659135,2020-06-09 01:32,441.00,-29
1591659195,2020-06-09 01:33,439.00,-30
1591659255,2020-06-09 01:34,439.00,-28
1591659315,2020-06-09 01:35,437.00,-29
1591659375,2020-06-09 01:36,438.00,-28
1591659435,2020-06-09 01:37,437.00,-27
1591659495,2020-06-09 01:38,437.00,-28
1591659555,2020-06-09 01:39,436.00,-27
1591659615,2020-06-09 01:40,434.00,-30
1591659675,2020-06-09 01:41,437.00,-27
1591659735,2020-06-09 01:42,437.00,-28
1591659795,2020-06-09 01:43,438.00,-30
1591659855,2020-06-09 01:44,437.00,-30
1591659915,2020-06-09 01:45,437.00,-26
1591659975,2020-06-09 01:46,436.00,-27
1591660035,2020-06-09 01:47,438.00,-28
1591660095,2020-06-09 01:48,439.00,-30
1591660155,2020-06-09 01:49,440.00,-28
1591660216,2020-06-09 01:50,439.00,-27
1591660276,2020-06-09 01:51,437.00,-28
1591660336,2020-06-09 01:52,439.00,-27
1591660396,2020-06-09 01:53,441.00,-28
1591660456,2020-06-09 01:54,439.00,-28
1591660516,2020-06-09 01:55,436.00,-28
1591660576,2020-06-09 01:56,438.00,-29
1591660636,2020-06-09 01:57,439.00,-28
1591660696,2020-06-09 01:58,439.00,-30
1591660756,2020-06-09 01:59,441.00,-28
1591660816,2020-06-09 02:00,438.00,-28
1591660876,2020-06-09 02:01,441.00,-28
1591660936,2020-06-09 02:02,440.00,-30
1591660996,2020-06-09 02:03,439.00,-28
1591661056,2020-06-09 02:04,441.00,-28
1591661116,2020-06-09 02:05,443.00,-29
1591661176,2020-06-09 02:06,441.00,-28
1591661236,2020-06-09 02:07,442.00,-31
1591661296,2020-06-09 02:08,441.00,-30
1591661356,2020-06-09 02:09,443.00,-28
1591661416,2020-06-09 02:10,443.00,-28
1591661476,2020-06-09 02:11,441.00,-29
1591661536,2020-06-09 02:12,441.00,-27
1591661596,2020-06-09 02:13,442.00,-27
1591661656,2020-06-09 02:14,440.00,-29
1591661717,2020-06-09 02:15,443.00,-30
1591661777,2020-06-09 02:16,441.00,-30
1591661837,2020-06-09 02:17,442.00,-27
1591661897,2020-06-09 02:18,442.00,-28
1591661957,2020-06-09 02:19,444.00,-27
1591662017,2020-06-09 02:20,441.00,-28
1591662077,2020-06-09 02:21,444.00,-27
1591662137,2020-06-09 02:22,446.00,-28
1591662197,2020-06-09 02:23,445.00,-29
1591662257,2020-06-09 02:24,444.00,-28
1591662317,2020-06-09 02:25,443.00,-28
1591662377,2020-06-09 02:26,444.00,-29
1591662437,2020-06-09 02:27,443.00,-28
1591662497,2020-06-09 02:28,443.00,-30
1591662557,2020-06-09 02:29,445.00,-29
1591662617,2020-06-09 02:30,443.00,-29
1591662677,2020-06-09 02:31,445.00,-29
1591662737,2020-06-09 02:32,444.00,-28
1591662797,2020-06-09 02:33,446.00,-28
1591662857,2020-06-09 02:34,446.00,-31
1591662917,2020-06-09 02:35,447.00,-27
1591662977,2020-06-09 02:36,436.00,-30
1591663037,2020-06-09 02:37,437.00,-28
1591663098,2020-06-09 02:38,438.00,-29
1591663158,2020-06-09 02:39,436.00,-29
1591663218,2020-06-09 02:40,436.00,-28
1591663278,2020-06-09 02:41,435.00,-29
1591663338,2020-06-09 02:42,435.00,-28
1591663398,2020-06-09 02:43,436.00,-28
1591663458,2020-06-09 02:44,437.00,-27
1591663518,2020-06-09 02:45,436.00,-28
1591663578,2020-06-09 02:46,435.00,-29
1591663638,2020-06-09 02:47,438.00,-28
1591663698,2020-06-09 02:48,435.00,-30
1591663758,2020-06-09 02:49,436.00,-29
1591663818,2020-06-09 02:50,436.00,-28
1591663878,2020-06-09 02:51,437.00,-28
1591663938,2020-06-09 02:52,434.00,-27
1591663998,2020-06-09 02:53,434.00,-31
1591664058,2020-06-09 02:54,435.00,-29
1591664118,2020-06-09 02:55,434.00,-29
1591664178,2020-06-09 02:56,435.00,-28
1591664238,2020-06-09 02:57,436.00,-28
1591664298,2020-06-09 02:58,437.00,-28
1591664358,2020-06-09 02:59,435.00,-29
1591664418,2020-06-09 03:00,433.00,-29
1591664479,2020-06-09 03:01,431.00,-27
1591664539,2020-06-09 03:02,433.00,-28
1591664599,2020-06-09 03:03,432.00,-27
1591664659,2020-06-09 03:04,434.00,-30
1591664719,2020-06-09 03:05,434.00,-28
1591664779,2020-06-09 03:06,434.00,-27
1591664839,2020-06-09 03:07,438.00,-28
1591664899,2020-06-09 03:08,434.00,-28
1591664959,2020-06-09 03:09,432.00,-28
1591665019,2020-06-09 03:10,434.00,-29
1591665079,2020-06-09 03:11,433.00,-28
1591665139,2020-06-09 03:12,433.00,-29
1591665199,2020-06-09 03:13,433.00,-28
1591665259,2020-06-09 03:14,430.00,-28
1591665319,2020-06-09 03:15,433.00,-29
1591665379,2020-06-09 03:16,434.00,-28
1591665439,2020-06-09 03:17,433.00,-29
1591665499,2020-06-09 03:18,432.00,-28
1591665559,2020-06-09 03:19,437.00,-29
1591665619,2020-06-09 03:20,433.00,-29
1591665679,2020-06-09 03:21,436.00,-29
1591665739,2020-06-09 03:22,433.00,-30
1591665799,2020-06-09 03:23,433.00,-30
1591665859,2020-06-09 03:24,435.00,-28
1591665919,2020-06-09 03:25,433.00,-30
1591665980,2020-06-09 03:26,430.00,-28
1591666040,2020-06-09 03:27,432.00,-28
1591666100,2020-06-09 03:28,433.00,-28
1591666160,2020-06-09 03:29,432.00,-28
1591666220,2020-06-09 03:30,433.00,-27
1591666280,2020-06-09 03:31,432.00,-27
1591666340,2020-06-09 03:32,431.00,-30
1591666400,2020-06-09 03:33,434.00,-27
1591666460,2020-06-09 03:34,431.00,-30
1591666520,2020-06-09 03:35,431.00,-30
1591666580,2020-06-09 03:36,432.00,-30
1591666640,2020-06-09 03:37,431.00,-29
1591666700,2020-06-09 03:38,430.00,-29
1591666760,2020-06-09 03:39,432.00,-28
1591666820,2020-06-09 03:40,434.00,-28
1591666880,2020-06-09 03:41,433.00,-29
1591666940,2020-06-09 03:42,433.00,-28
1591667000,2020-06-09 03:43,434.00,-28
1591667060,2020-06-09 03:44,433.00,-28
1591667120,2020-06-09 03:45,433.00,-28
1591667180,2020-06-09 03:46,432.00,-28
1591667240,2020-06-09 03:47,431.00,-27
1591667300,2020-06-09 03:48,431.00,-28
1591667360,2020-06-09 03:49,430.00,-29
1591667420,2020-06-09 03:50,431.00,-27
1591667480,2020-06-09 03:51,432.00,-28
1591667541,2020-06-09 03:52,432.00,-28
1591667601,2020-06-09 03:53,433.00,-28
1591667661,2020-06-09 03:54,434.00,-27
1591667721,2020-06-09 03:55,430.00,-27
1591667781,2020-06-09 03:56,430.00,-28
1591667841,2020-06-09 03:57,430.00,-29
1591667901,2020-06-09 03:58,432.00,-28
1591667961,2020-06-09 03:59,431.00,-30
1591668021,2020-06-09 04:00,430.00,-27
1591668081,2020-06-09 04:01,433.00,-30
1591668141,2020-06-09 04:02,433.00,-28
1591668201,2020-06-09 04:03,432.00,-28
1591668261,2020-06-09 04:04,432.00,-28
1591668321,2020-06-09 04:05,434.00,-28
1591668381,2020-06-09 04:06,433.00,-30
1591668441,2020-06-09 04:07,434.00,-30
1591668501,2020-06-09 04:08,434.00,-28
1591668561,2020-06-09 04:09,432.00,-28
1591668621,2020-06-09 04:10,434.00,-28
1591668681,2020-06-09 04:11,434.00,-30
1591668742,2020-06-09 04:12,432.00,-30
1591668802,2020-06-09 04:13,434.00,-30
1591668862,2020-06-09 04:14,437.00,-30
1591668922,2020-06-09 04:15,433.00,-28
1591668982,2020-06-09 04:16,437.00,-29
1591669042,2020-06-09 04:17,434.00,-28
1591669102,2020-06-09 04:18,435.00,-30
1591669162,2020-06-09 04:19,432.00,-27
1591669222,2020-06-09 04:20,434.00,-27
1591669282,2020-06-09 04:21,432.00,-29
1591669342,2020-06-09 04:22,436.00,-27
1591669402,2020-06-09 04:23,434.00,-28
1591669462,2020-06-09 04:24,437.00,-29
1591669522,2020-06-09 04:25,435.00,-30
1591669582,2020-06-09 04:26,435.00,-28
1591669642,2020-06-09 04:27,433.00,-28
1591669702,2020-06-09 04:28,431.00,-29
1591669762,2020-06-09 04:29,432.00,-30
1591669822,2020-06-09 04:30,434.00,-29
1591669883,2020-06-09 04:31,434.00,-27
1591669943,2020-06-09 04:32,432.00,-28
1591670003,2020-06-09 04:33,429.00,-28
1591670063,2020-06-09 04:34,432.00,-33
1591670123,2020-06-09 04:35,434.00,-27
1591670183,2020-06-09 04:36,432.00,-28
1591670243,2020-06-09 04:37,429.00,-29
1591670303,2020-06-09 04:38,431.00,-29
1591670364,2020-06-09 04:39,433.00,-28
1591670424,2020-06-09 04:40,432.00,-30
1591670484,2020-06-09 04:41,431.00,-27
1591670544,2020-06-09 04:42,432.00,-29
1591670604,2020-06-09 04:43,432.00,-28
1591670664,2020-06-09 04:44,431.00,-28
1591670724,2020-06-09 04:45,433.00,-29
1591670784,2020-06-09 04:46,428.00,-28
1591670844,2020-06-09 04:47,432.00,-28
1591670904,2020-06-09 04:48,432.00,-30
1591670964,2020-06-09 04:49,434.00,-28
1591671024,2020-06-09 04:50,432.00,-28
1591671084,2020-06-09 04:51,435.00,-28
1591671144,2020-06-09 04:52,434.00,-28
1591671204,2020-06-09 04:53,436.00,-28
1591671264,2020-06-09 04:54,436.00,-30
1591671324,2020-06-09 04:55,435.00,-27
1591671385,2020-06-09 04:56,434.00,-27
1591671445,2020-06-09 04:57,439.00,-28
1591671505,2020-06-09 04:58,433.00,-29
1591671565,2020-06-09 04:59,435.00,-28
1591671625,2020-06-09 05:00,435.00,-29
1591671685,2020-06-09 05:01,436.00,-31
1591671745,2020-06-09 05:02,435.00,-28
1591671805,2020-06-09 05:03,433.00,-27
1591671865,2020-06-09 05:04,434.00,-28
1591671925,2020-06-09 05:05,435.00,-29
1591671985,2020-06-09 05:06,434.00,-29
1591672045,2020-06-09 05:07,435.00,-28
1591672105,2020-06-09 05:08,435.00,-27
1591672165,2020-06-09 05:09,436.00,-29
1591672225,2020-06-09 05:10,438.00,-27
1591672285,2020-06-09 05:11,436.00,-29
1591672345,2020-06-09 05:12,435.00,-28
1591672405,2020-06-09 05:13,437.00,-29
1591672465,2020-06-09 05:14,435.00,-27
1591672525,2020-06-09 05:15,437.00,-28
1591672586,2020-06-09 05:16,437.00,-30
1591672646,2020-06-09 05:17,436.00,-28
1591672706,2020-06-09 05:18,435.00,-27
1591672766,2020-06-09 05:19,439.00,-29
1591672826,2020-06-09 05:20,436.00,-30
1591672886,2020-06-09 05:21,436.00,-29
1591672946,2020-06-09 05:22,436.00,-31
1591673006,2020-06-09 05:23,437.00,-29
1591673066,2020-06-09 05:24,438.00,-27
1591673126,2020-06-09 05:25,434.00,-27
1591673186,2020-06-09 05:26,433.00,-29
1591673246,2020-06-09 05:27,437.00,-28
1591673306,2020-06-09 05:28,434.00,-27
1591673366,2020-06-09 05:29,438.00,-27
1591673426,2020-06-09 05:30,437.00,-27
1591673486,2020-06-09 05:31,434.00,-27
1591673546,2020-06-09 05:32,434.00,-29
1591673606,2020-06-09 05:33,436.00,-27
1591673666,2020-06-09 05:34,433.00,-27
1591673726,2020-06-09 05:35,433.00,-28
1591673787,2020-06-09 05:36,432.00,-27
1591673847,2020-06-09 05:37,435.00,-29
1591673907,2020-06-09 05:38,436.00,-28
1591673967,2020-06-09 05:39,434.00,-28
1591674027,2020-06-09 05:40,436.00,-28
1591674087,2020-06-09 05:41,437.00,-30
1591674147,2020-06-09 05:42,435.00,-27
1591674207,2020-06-09 05:43,438.00,-28
1591674267,2020-06-09 05:44,434.00,-29
1591674327,2020-06-09 05:45,441.00,-29
1591674387,2020-06-09 05:46,436.00,-28
1591674447,2020-06-09 05:47,437.00,-32
1591674507,2020-06-09 05:48,437.00,-28
1591674567,2020-06-09 05:49,434.00,-28
1591674627,2020-06-09 05:50,438.00,-29
1591674687,2020-06-09 05:51,434.00,-28
1591674748,2020-06-09 05:52,437.00,-28
1591674808,2020-06-09 05:53,435.00,-28
1591674868,2020-06-09 05:54,434.00,-31
1591674928,2020-06-09 05:55,438.00,-28
1591674988,2020-06-09 05:56,439.00,-29
1591675048,2020-06-09 05:57,436.00,-30
1591675108,2020-06-09 05:58,440.00,-29
1591675168,2020-06-09 05:59,436.00,-28
1591675228,2020-06-09 06:00,436.00,-28
1591675288,2020-06-09 06:01,438.00,-27
1591675348,2020-06-09 06:02,436.00,-30
1591675408,2020-06-09 06:03,436.00,-29
1591675469,2020-06-09 06:04,437.00,-28
1591675529,2020-06-09 06:05,436.00,-27
1591675589,2020-06-09 06:06,436.00,-29
1591675649,2020-06-09 06:07,437.00,-30
1591675709,2020-06-09 06:08,436.00,-30
1591675887,2020-06-09 06:11,433.00,-27
1591675947,2020-06-09 06:12,435.00,-27
1591676007,2020-06-09 06:13,435.00,-29
1591676067,2020-06-09 06:14,435.00,-30
1591676127,2020-06-09 06:15,434.00,-28
1591676187,2020-06-09 06:16,433.00,-28
1591676247,2020-06-09 06:17,434.00,-28
1591676307,2020-06-09 06:18,434.00,-27
1591676368,2020-06-09 06:19,436.00,-28
1591676428,2020-06-09 06:20,436.00,-29
1591676488,2020-06-09 06:21,434.00,-28
1591676548,2020-06-09 06:22,435.00,-31
1591676608,2020-06-09 06:23,433.00,-27
1591676668,2020-06-09 06:24,435.00,-30
1591676728,2020-06-09 06:25,432.00,-27
1591676788,2020-06-09 06:26,430.00,-29
1591676848,2020-06-09 06:27,432.00,-27
1591676908,2020-06-09 06:28,435.00,-27
1591676968,2020-06-09 06:29,434.00,-29
1591677028,2020-06-09 06:30,435.00,-28
1591677088,2020-06-09 06:31,436.00,-28
1591677148,2020-06-09 06:32,434.00,-29
1591677208,2020-06-09 06:33,433.00,-28
1591677268,2020-06-09 06:34,429.00,-28
1591677328,2020-06-09 06:35,432.00,-29
1591677388,2020-06-09 06:36,434.00,-27
1591677448,2020-06-09 06:37,431.00,-28
1591677508,2020-06-09 06:38,431.00,-28
1591677568,2020-06-09 06:39,430.00,-30
1591677629,2020-06-09 06:40,432.00,-31
1591677689,2020-06-09 06:41,432.00,-28
1591677749,2020-06-09 06:42,430.00,-29
1591677809,2020-06-09 06:43,430.00,-28
1591677869,2020-06-09 06:44,430.00,-28
1591677929,2020-06-09 06:45,430.00,-29
1591677989,2020-06-09 06:46,429.00,-29
1591678049,2020-06-09 06:47,428.00,-28
1591678109,2020-06-09 06:48,429.00,-29
1591678169,2020-06-09 06:49,431.00,-28
1591678229,2020-06-09 06:50,433.00,-28
1591678289,2020-06-09 06:51,433.00,-28
1591678349,2020-06-09 06:52,431.00,-28
1591678409,2020-06-09 06:53,428.00,-29
1591678470,2020-06-09 06:54,430.00,-28
1591678530,2020-06-09 06:55,431.00,-30
1591678590,2020-06-09 06:56,429.00,-28
1591678650,2020-06-09 06:57,430.00,-29
1591678710,2020-06-09 06:58,432.00,-30
1591678770,2020-06-09 06:59,431.00,-29
1591678830,2020-06-09 07:00,431.00,-30
1591678890,2020-06-09 07:01,431.00,-28
1591678950,2020-06-09 07:02,430.00,-29
1591679010,2020-06-09 07:03,427.00,-28
1591679070,2020-06-09 07:04,429.00,-30
1591679131,2020-06-09 07:05,430.00,-28
1591679191,2020-06-09 07:06,428.00,-28
1591679251,2020-06-09 07:07,431.00,-29
1591679311,2020-06-09 07:08,431.00,-29
1591679371,2020-06-09 07:09,432.00,-33
1591679431,2020-06-09 07:10,429.00,-31
1591679491,2020-06-09 07:11,427.00,-32
1591679552,2020-06-09 07:12,428.00,-30
1591679612,2020-06-09 07:13,428.00,-28
1591679672,2020-06-09 07:14,428.00,-32
1591679732,2020-06-09 07:15,427.00,-32
1591679792,2020-06-09 07:16,426.00,-30
1591679852,2020-06-09 07:17,428.00,-33
1591679912,2020-06-09 07:18,427.00,-30
1591679972,2020-06-09 07:19,426.00,-29
1591680032,2020-06-09 07:20,426.00,-29
1591680092,2020-06-09 07:21,425.00,-29
1591680152,2020-06-09 07:22,423.00,-31
1591680213,2020-06-09 07:23,425.00,-31
1591680273,2020-06-09 07:24,426.00,-29
1591680333,2020-06-09 07:25,424.00,-29
1591680393,2020-06-09 07:26,426.00,-29
1591680453,2020-06-09 07:27,425.00,-28
1591680513,2020-06-09 07:28,423.00,-29
1591680573,2020-06-09 07:29,428.00,-28
1591680633,2020-06-09 07:30,429.00,-31
1591680693,2020-06-09 07:31,423.00,-30
1591680753,2020-06-09 07:32,424.00,-29
1591680813,2020-06-09 07:33,421.00,-28
1591680873,2020-06-09 07:34,420.00,-31
1591680934,2020-06-09 07:35,427.00,-30
1591680994,2020-06-09 07:36,427.00,-32
1591681054,2020-06-09 07:37,429.00,-28
1591681114,2020-06-09 07:38,429.00,-29
1591681174,2020-06-09 07:39,432.00,-28
1591681234,2020-06-09 07:40,432.00,-29
1591681294,2020-06-09 07:41,431.00,-28
1591681354,2020-06-09 07:42,432.00,-31
1591681414,2020-06-09 07:43,429.00,-28
1591681474,2020-06-09 07:44,430.00,-32
1591681534,2020-06-09 07:45,432.00,-28
1591681594,2020-06-09 07:46,429.00,-28
1591681654,2020-06-09 07:47,431.00,-28
1591681715,2020-06-09 07:48,432.00,-30
1591681775,2020-06-09 07:49,431.00,-30
1591681835,2020-06-09 07:50,431.00,-28
1591681895,2020-06-09 07:51,431.00,-29
1591681955,2020-06-09 07:52,431.00,-29
1591682015,2020-06-09 07:53,431.00,-29
1591682075,2020-06-09 07:54,431.00,-32
1591682136,2020-06-09 07:55,427.00,-30
1591682196,2020-06-09 07:56,430.00,-31
1591682256,2020-06-09 07:57,428.00,-28
1591682316,2020-06-09 07:58,425.00,-29
1591682376,2020-06-09 07:59,426.00,-29
1591682436,2020-06-09 08:00,424.00,-28
1591682496,2020-06-09 08:01,424.00,-31
1591682556,2020-06-09 08:02,425.00,-29
1591682616,2020-06-09 08:03,426.00,-30
1591682676,2020-06-09 08:04,425.00,-29
1591682736,2020-06-09 08:05,426.00,-30
1591682797,2020-06-09 08:06,424.00,-31
1591682857,2020-06-09 08:07,424.00,-30
1591682917,2020-06-09 08:08,420.00,-30
1591682977,2020-06-09 08:09,423.00,-29
1591683037,2020-06-09 08:10,425.00,-31
1591683097,2020-06-09 08:11,425.00,-33
1591683157,2020-06-09 08:12,423.00,-31
1591683217,2020-06-09 08:13,425.00,-29
1591683277,2020-06-09 08:14,424.00,-31
1591683337,2020-06-09 08:15,423.00,-29
1591683397,2020-06-09 08:16,422.00,-29
1591683457,2020-06-09 08:17,425.00,-30
1591683517,2020-06-09 08:18,424.00,-29
1591683578,2020-06-09 08:19,421.00,-29
1591683638,2020-06-09 08:20,423.00,-29
1591683698,2020-06-09 08:21,426.00,-30
1591683758,2020-06-09 08:22,426.00,-28
1591683818,2020-06-09 08:23,423.00,-29
1591683878,2020-06-09 08:24,426.00,-28
1591683938,2020-06-09 08:25,426.00,-30
1591683998,2020-06-09 08:26,424.00,-28
1591684058,2020-06-09 08:27,425.00,-30
1591684118,2020-06-09 08:28,425.00,-30
1591684178,2020-06-09 08:29,425.00,-28
1591684238,2020-06-09 08:30,421.00,-29
1591684299,2020-06-09 08:31,424.00,-30
1591684359,2020-06-09 08:32,423.00,-29
1591684419,2020-06-09 08:33,429.00,-29
1591684479,2020-06-09 08:34,428.00,-30
1591684539,2020-06-09 08:35,426.00,-29
1591684599,2020-06-09 08:36,426.00,-29
1591684659,2020-06-09 08:37,427.00,-30
1591684720,2020-06-09 08:38,426.00,-29
1591684780,2020-06-09 08:39,428.00,-31
1591684840,2020-06-09 08:40,426.00,-29
1591684900,2020-06-09 08:41,426.00,-30
1591684960,2020-06-09 08:42,426.00,-29
1591685020,2020-06-09 08:43,425.00,-29
1591685080,2020-06-09 08:44,427.00,-31
1591685140,2020-06-09 08:45,424.00,-29
1591685200,2020-06-09 08:46,427.00,-28
1591685260,2020-06-09 08:47,429.00,-30
1591685320,2020-06-09 08:48,431.00,-31
1591685381,2020-06-09 08:49,430.00,-28
1591685441,2020-06-09 08:50,429.00,-29
1591685501,2020-06-09 08:51,425.00,-31
1591685561,2020-06-09 08:52,423.00,-29
1591685621,2020-06-09 08:53,423.00,-29
1591685681,2020-06-09 08:54,422.00,-30
1591685741,2020-06-09 08:55,425.00,-29
1591685801,2020-06-09 08:56,425.00,-30
1591685862,2020-06-09 08:57,426.00,-29
1591685922,2020-06-09 08:58,426.00,-29
1591685982,2020-06-09 08:59,426.00,-31
1591686042,2020-06-09 09:00,424.00,-33
1591686102,2020-06-09 09:01,423.00,-28
1591686162,2020-06-09 09:02,424.00,-29
1591686222,2020-06-09 09:03,424.00,-33
1591686282,2020-06-09 09:04,424.00,-28
1591686343,2020-06-09 09:05,421.00,-29
1591686403,2020-06-09 09:06,421.00,-30
1591686463,2020-06-09 09:07,427.00,-30
1591686523,2020-06-09 09:08,424.00,-31
1591686583,2020-06-09 09:09,423.00,-28
1591686643,2020-06-09 09:10,427.00,-29
1591686703,2020-06-09 09:11,426.00,-30
1591686763,2020-06-09 09:12,426.00,-30
1591686823,2020-06-09 09:13,425.00,-30
1591686883,2020-06-09 09:14,424.00,-31
1591686943,2020-06-09 09:15,423.00,-30
1591687003,2020-06-09 09:16,420.00,-29
1591687063,2020-06-09 09:17,420.00,-35
1591687123,2020-06-09 09:18,421.00,-29
1591687184,2020-06-09 09:19,422.00,-30
1591687244,2020-06-09 09:20,426.00,-30
1591687304,2020-06-09 09:21,427.00,-30
1591687364,2020-06-09 09:22,424.00,-29
1591687424,2020-06-09 09:23,423.00,-30
1591687484,2020-06-09 09:24,422.00,-28
1591687544,2020-06-09 09:25,424.00,-29
1591687604,2020-06-09 09:26,422.00,-31
1591687665,2020-06-09 09:27,423.00,-33
1591687725,2020-06-09 09:28,419.00,-30
1591687785,2020-06-09 09:29,420.00,-31
1591687845,2020-06-09 09:30,423.00,-28
1591687905,2020-06-09 09:31,420.00,-29
1591687965,2020-06-09 09:32,421.00,-30
1591688025,2020-06-09 09:33,419.00,-32
1591688085,2020-06-09 09:34,418.00,-28
1591688146,2020-06-09 09:35,419.00,-30
1591688206,2020-06-09 09:36,421.00,-28
1591688266,2020-06-09 09:37,424.00,-29
1591688326,2020-06-09 09:38,419.00,-30
1591688386,2020-06-09 09:39,418.00,-30
1591688446,2020-06-09 09:40,418.00,-30
1591688506,2020-06-09 09:41,423.00,-29
1591688566,2020-06-09 09:42,423.00,-29
1591688626,2020-06-09 09:43,419.00,-31
1591688686,2020-06-09 09:44,420.00,-29
1591688746,2020-06-09 09:45,418.00,-29
1591688807,2020-06-09 09:46,417.00,-30
1591688867,2020-06-09 09:47,421.00,-28
1591688927,2020-06-09 09:48,422.00,-30
1591688987,2020-06-09 09:49,420.00,-29
1591689047,2020-06-09 09:50,421.00,-31
1591689107,2020-06-09 09:51,420.00,-29
1591689167,2020-06-09 09:52,419.00,-29
1591689227,2020-06-09 09:53,420.00,-31
1591689287,2020-06-09 09:54,418.00,-31
1591689347,2020-06-09 09:55,421.00,-30
1591689407,2020-06-09 09:56,421.00,-30
1591689467,2020-06-09 09:57,421.00,-30
1591689528,2020-06-09 09:58,418.00,-30
1591689588,2020-06-09 09:59,419.00,-31
1591689648,2020-06-09 10:00,419.00,-31
1591689708,2020-06-09 10:01,418.00,-30
1591689768,2020-06-09 10:02,418.00,-28
1591689828,2020-06-09 10:03,419.00,-32
1591689889,2020-06-09 10:04,417.00,-30
1591689949,2020-06-09 10:05,422.00,-28
1591690009,2020-06-09 10:06,420.00,-32
1591690069,2020-06-09 10:07,420.00,-32
1591690129,2020-06-09 10:08,419.00,-30
1591690189,2020-06-09 10:09,418.00,-31
1591690249,2020-06-09 10:10,417.00,-31
1591690309,2020-06-09 10:11,417.00,-29
1591690369,2020-06-09 10:12,424.00,-30
1591690430,2020-06-09 10:13,424.00,-30
1591690490,2020-06-09 10:14,423.00,-29
1591690550,2020-06-09 10:15,421.00,-28
1591690610,2020-06-09 10:16,424.00,-30